Lake Buchanan Weather Center

Moon Phase Calendar



Lake Buchanan Water Level
Online Cameras

 


      

Current Conditions in Buchanan Dam
9/18/2021 5:15:10 PM

94°F
Feels Like 94
Clouds
Humidity
31%
Pressure
30"
Wind
5.8 mph (N)
Dew Point
59°F
UV Index
3/10 (Moderate)
Visibility
6 mi

Hourly Forecast

Date & Time Sat, Sep 18
5:00 PM
Sat, Sep 18
6:00 PM
Sat, Sep 18
7:00 PM
Sat, Sep 18
8:00 PM
Sat, Sep 18
9:00 PM
Sat, Sep 18
10:00 PM
Sat, Sep 18
11:00 PM
Sun, Sep 19
12:00 AM
Sun, Sep 19
1:00 AM
Sun, Sep 19
2:00 AM
Sun, Sep 19
3:00 AM
Sun, Sep 19
4:00 AM
Sun, Sep 19
5:00 AM
Sun, Sep 19
6:00 AM
Sun, Sep 19
7:00 AM
Sun, Sep 19
8:00 AM
Sun, Sep 19
9:00 AM
Sun, Sep 19
10:00 AM
Sun, Sep 19
11:00 AM
Sun, Sep 19
12:00 PM
Sun, Sep 19
1:00 PM
Sun, Sep 19
2:00 PM
Sun, Sep 19
3:00 PM
Sun, Sep 19
4:00 PM
Sun, Sep 19
5:00 PM
Sun, Sep 19
6:00 PM
Sun, Sep 19
7:00 PM
Sun, Sep 19
8:00 PM
Sun, Sep 19
9:00 PM
Sun, Sep 19
10:00 PM
Sun, Sep 19
11:00 PM
Mon, Sep 20
12:00 AM
Mon, Sep 20
1:00 AM
Mon, Sep 20
2:00 AM
Mon, Sep 20
3:00 AM
Mon, Sep 20
4:00 AM
Mon, Sep 20
5:00 AM
Mon, Sep 20
6:00 AM
Mon, Sep 20
7:00 AM
Mon, Sep 20
8:00 AM
Mon, Sep 20
9:00 AM
Mon, Sep 20
10:00 AM
Mon, Sep 20
11:00 AM
Mon, Sep 20
12:00 PM
Mon, Sep 20
1:00 PM
Mon, Sep 20
2:00 PM
Mon, Sep 20
3:00 PM
Mon, Sep 20
4:00 PM
Condition
Clouds

Clouds

Clouds

Clear

Clear

Clouds

Clouds

Clear

Clear

Clear

Clear

Clear

Clear

Clear

Clear

Clear

Clear

Clear

Clear

Clear

Clear

Clear

Clear

Clear

Clear

Clear

Clear

Clear

Clear

Clear

Clear

Clear

Clear

Clear

Clear

Clear

Clear

Clear

Clear

Clear

Clear

Clear

Clear

Clear

Clear

Clear

Clear

Clear
Temperature 94°F94°F91°F88°F85°F81°F79°F78°F77°F76°F76°F75°F75°F74°F74°F76°F80°F84°F88°F91°F93°F95°F96°F96°F96°F95°F91°F86°F84°F83°F83°F82°F79°F76°F75°F75°F74°F74°F74°F75°F80°F86°F91°F95°F98°F99°F100°F100°F
Feels Like 94°F93°F92°F88°F85°F82°F79°F78°F78°F77°F76°F75°F75°F75°F74°F76°F81°F85°F88°F91°F92°F93°F93°F94°F93°F93°F89°F84°F83°F82°F82°F81°F79°F77°F75°F75°F74°F74°F74°F76°F82°F88°F93°F95°F97°F97°F97°F98°F
Cloudiness 20%18%16%8%8%12%11%8%7%0%0%0%0%0%0%0%0%0%0%0%0%0%0%0%0%0%0%0%0%0%0%0%0%0%0%0%0%0%0%0%0%0%0%0%0%0%0%0%
Visibility 6 mi6 mi6 mi6 mi6 mi6 mi6 mi6 mi6 mi6 mi6 mi6 mi6 mi6 mi6 mi6 mi6 mi6 mi6 mi6 mi6 mi6 mi6 mi6 mi6 mi6 mi6 mi6 mi6 mi6 mi6 mi6 mi6 mi6 mi6 mi6 mi6 mi6 mi6 mi6 mi6 mi6 mi6 mi6 mi6 mi6 mi6 mi6 mi
Precipitation 0%0%0%0%0%0%0%0%0%0%0%0%0%0%0%0%0%0%0%0%0%0%0%0%0%0%0%0%0%0%0%0%0%0%0%0%0%0%0%0%0%0%0%0%0%0%0%0%
Humidity 31%32%37%42%47%54%57%59%59%62%64%65%64%65%66%64%55%48%41%36%30%27%24%23%22%23%29%34%35%36%36%37%46%58%62%64%67%69%72%72%62%52%40%32%25%22%20%20%
Dew Point 59°F59°F62°F62°F62°F62°F62°F62°F62°F62°F62°F62°F62°F61°F61°F62°F62°F62°F61°F60°F57°F55°F54°F52°F52°F52°F55°F54°F54°F53°F53°F53°F56°F60°F61°F61°F62°F63°F64°F65°F66°F66°F64°F60°F56°F53°F52°F52°F
Pressure 30"29.97"29.97"29.94"29.94"29.94"29.94"29.94"29.94"29.94"29.91"29.91"29.91"29.91"29.91"29.94"29.94"29.94"29.94"29.91"29.88"29.85"29.83"29.8"29.77"29.77"29.8"29.8"29.83"29.83"29.83"29.83"29.83"29.83"29.83"29.83"29.83"29.83"29.83"29.85"29.85"29.85"29.85"29.85"29.83"29.8"29.8"29.77"
Wind Speed 11.4 mph15.6 mph14.2 mph8.2 mph6.8 mph5 mph3.4 mph3.4 mph4.1 mph3.3 mph2.1 mph2 mph3.5 mph4.4 mph4.6 mph4 mph3.2 mph3.2 mph2.5 mph2 mph1.9 mph2.7 mph3.1 mph3.5 mph4.7 mph5.9 mph7.4 mph7.9 mph6.6 mph5.8 mph5.8 mph6.9 mph8.8 mph8.9 mph6.1 mph6.6 mph7.5 mph7.7 mph7.3 mph6.2 mph11 mph12.9 mph13.4 mph13.4 mph13 mph12.3 mph12.2 mph12.1 mph
Wind
Direction
51°
NE
67°
ENE
79°
E
81°
E
94°
E
118°
ESE
158°
SSE
206°
SSW
230°
SW
242°
WSW
242°
WSW
226°
SW
216°
SW
235°
SW
254°
WSW
274°
W
282°
WNW
284°
WNW
297°
WNW
334°
NNW
31°
NNE
55°
NE
62°
ENE
77°
ENE
89°
E
105°
ESE
119°
ESE
123°
ESE
125°
SE
132°
SE
143°
SE
146°
SE
149°
SSE
168°
SSE
180°
S
176°
S
186°
S
204°
SSW
214°
SW
208°
SSW
212°
SSW
213°
SSW
210°
SSW
203°
SSW
196°
SSW
187°
S
176°
S
169°
S

Daily Forecast

Date High Low Precip. Humidity
Today
Sep 18

Clear
94 °F
73 °F
29%
38%
Sunday
Sep 19

Clear
96 °F
74 °F
0%
30%
Monday
Sep 20

Clear
100 °F
74 °F
0%
25%
Tuesday
Sep 21

Rain
97 °F
73 °F
44%
37%
Wednesday
Sep 22

Clouds
86 °F
69 °F
39%
20%
Thursday
Sep 23

Clear
85 °F
60 °F
0%
25%
Friday
Sep 24

Clouds
87 °F
59 °F
0%
27%
Saturday
Sep 25

Clear
91 °F
62 °F
0%
24%
Sunday
Sep 26

Clear
94 °F
64 °F
0%
22%
Monday
Sep 27

Clear
96 °F
66 °F
0%
19%
Tuesday
Sep 28

Clear
96 °F
70 °F
0%
23%
Wednesday
Sep 29

Rain
98 °F
70 °F
73%
27%
Thursday
Sep 30

Clear
93 °F
69 °F
65%
32%
Friday
Oct 1

Clear
92 °F
66 °F
0%
35%
Saturday
Oct 2

Clear
91 °F
66 °F
0%
35%
Sunday
Oct 3

Clear
91 °F
63 °F
0%
27%

Temperature 8-14 Day Outlook



Precipitation 8-14 Day Outlook




Quick Links
Lake Buchanan News
Lake Buchanan Photos
Lake Buchanan Videos




About Us
Contact Us
Site Map
Search Site
Advertise With Us
   
Buchanan.LakesOnline.com
THE LAKE BUCHANAN WEBSITE

Copyright 2021, Lakes Online
Privacy    |    Legal